Regional Weather Roundup
Issued by NWS

Home | Current Version | Previous Version | Text Only | Print | Product List | Glossary On
Versions: 1 2 3 4 5 6 7 8 9 10 11 12 13 14 15 16 17 18 19 20 21 22 23 24 25 26 27 28 29 30 31 32 33 34 35 36 37 38 39 40 41 42 43 44 45 46 47 48 49 50
000
ASUS45 KBOU 181407
RWRCO

WEATHER ROUNDUP FOR COLORADO
NATIONAL WEATHER SERVICE DENVER/BOULDER CO
700 AM MST THU DEC 18 2014

NOTE: "FAIR" INDICATES FEW OR NO CLOUDS BELOW 12000 FEET WITH NO
SIGNIFICANT WEATHER AND/OR OBSTRUCTIONS TO VISIBILITY.

COZ001>005-013-030-031-181500-
...NORTHWEST COLORADO...

CITY           SKY/WX    TMP DP  RH WIND       PRES   REMARKS
CRAIG          CLOUDY    25  23  92 CALM      30.11R FOG
HAYDEN         CLOUDY    21  19  93 CALM      30.09R
MEEKER         CLOUDY    25  23  92 CALM      30.10R
MOUNT WERNER   NOT AVBL
STEAMBOAT SPGS CLOUDY    24  22  96 CALM      30.08R
WALDEN         CLOUDY     3   0  85 CALM      30.06R VSB 1/4
$$

COZ006>008-011-181500-
...WEST CENTRAL VALLEYS...

CITY           SKY/WX    TMP DP  RH WIND       PRES   REMARKS
GRAND JUNCTION LGT SNOW  32  32 100 NW5       30.11R FOG     WCI  27
MONTROSE       LGT SNOW  32  32 100 CALM      30.11R FOG
EAGLE          LGT SNOW  27  25  93 CALM      30.11R FOG
RIFLE          LGT SNOW  32  31  96 CALM      30.10R FOG
DELTA          LGT RAIN  34  34  98 CALM      30.11R
NUCLA          LGT SNOW  32  32 100 CALM      30.15R
$$

COZ017>023-064>068-181500-
...SOUTHWEST COLORADO...

CITY           SKY/WX    TMP DP  RH WIND       PRES   REMARKS
DURANGO        CLOUDY    29  28  96 NE3       30.11R
CORTEZ         CLOUDY    32  31  96 CALM      30.11R
PAGOSA SPRINGS CLOUDY    28  27  99 CALM      30.10R
TELLURIDE      PTCLDY   N/A N/A N/A CALM      30.08R
WOLF CREEK PAS SNOW      10  10 100 MISG      30.04S VSB 1/2
$$

COZ009-010-012-014-032>034-037-058>063-181500-
...CENTRAL COLORADO...

CITY           SKY/WX    TMP DP  RH WIND       PRES   REMARKS
ASPEN          CLOUDY    24  17  74 S6        30.05R WCI  17
BUENA VISTA    PTCLDY    13   9  83 CALM      30.05R
COPPER MTN     LGT SNOW  18  10  73 W17       30.02R WCI   2
BERTHOUD PASS  CLOUDY     9   3  78 MISG      30.01R
COTTONWOOD PAS PTCLDY    27  14  59 W3        30.02R
GUNNISON       CLOUDY    21  18  86 CALM      30.10R
KREMMLING      LGT SNOW  14  12  92 CALM      30.11R
LEADVILLE      CLOUDY    11   6  81 NE8       30.02R WCI  -1
MONARCH PASS   CLOUDY    14  10  85 MISG      30.11R
SALIDA         PTCLDY    23  17  78 NW5       30.13R WCI  17
SUNLIGHT       LGT SNOW N/A N/A N/A CALM      30.06R
WILKERSON PASS PTCLDY    16  12  86 NW8G16    30.02R WCI   5
$$

COZ069>075-181500-
...SAN LUIS VALLEY/SANGRE DE CRISTO MOUNTAINS...

CITY           SKY/WX    TMP DP  RH WIND       PRES   REMARKS
ALAMOSA        CLOUDY    24  22  91 SW6       30.08R WCI  17
LA VETA PASS   CLOUDY    19  18  93 S8G17     30.01S FOG     WCI   9
SAGUACHE       FLURRIES  19  18  93 NW9       30.09S WCI   9
$$

COZ035-036-038>040-181500-
...NORTHERN COLORADO FRONT RANGE...

CITY           SKY/WX    TMP DP  RH WIND       PRES   REMARKS
DENVER INTL AP MOCLDY    25  25 100 CALM      30.01R
DMNS CITY PARK   N/A     23  22  96 NE2       30.01R
AURORA         MOCLDY    27  27  99 CALM      30.01R
FRONT RANGE AP PTCLDY    28  27  93 CALM      30.01R
ERIE MUNI ARPT   N/A     18  17  94 CALM      30.02R
BOULDER MUN AP PTCLDY    27  23  86 CALM      30.02R
CENTENNIAL     PTCLDY    27  25  92 E3        29.99R
BROOMFIELD     PTCLDY    28  23  80 MISG      30.01R
FORT COLLINS   CLEAR     21  16  79 CALM      30.03R
LONGMONT       CLEAR     20  17  89 CALM      30.05R
$$

COZ041-046-047-076>085-087-088-181500-
...PIKES PEAK/PALMER DIVIDE AND SOUTHERN FOOTHILLS...

CITY           SKY/WX    TMP DP  RH WIND       PRES   REMARKS
COLO. SPRINGS  MOCLDY    26  24  92 N5        30.02R WCI  20
A. F. ACADEMY  PTCLDY    27  26  99 CALM      30.00R
ELLICOTT       NOT AVBL
FALCON         PTCLDY    24  23  98 CALM      30.02R FOG
FORT CARSON    MOCLDY    28  28  99 NW5       30.01R WCI  23
LIMON          PTCLDY    14  12  92 N6        30.02R WCI   5
MONUMENT HILL  MOCLDY    25  23  93 S7        29.98R WCI  17
TRINIDAD       CLEAR     22  18  85 W8        30.03R WCI  12
$$

COZ042>045-048>051-090-091-181500-
...NORTHEAST COLORADO...

CITY           SKY/WX    TMP DP  RH WIND       PRES   REMARKS
GREELEY ARPT   PTCLDY    12   5  73 N3        30.02R
AKRON          PTCLDY    20  17  88 W12       30.02R WCI   8
BURLINGTON     PTCLDY    13   9  84 W9        30.04R WCI   1
WRAY           CLOUDY    19  18  95 W5        30.06R VSB 1/4 WCI  12
STERLING       PTCLDY    14  12  92 SW5       30.04R WCI   6
HOLYOKE        NOT AVBL
FORT MORGAN    MOCLDY    18  16  92 W12       30.04R WCI   5
$$

COZ086-089-092>099-181500-
...SOUTHEAST COLORADO...

CITY           SKY/WX    TMP DP  RH WIND       PRES   REMARKS
PUEBLO         PTCLDY    15  12  88 SW5       30.04R WCI   8
LA JUNTA       CLEAR     23  20  88 SW9       30.06R WCI  13
LAMAR          CLOUDY    28  26  92 SW5       30.06R WCI  23
SPRINGFIELD      N/A     25  24  96 CALM      30.07R
$$



USA.gov is the U.S. government's official web portal to all federal, state and local government web resources and services.